Seattle, WA
on Tuesday, December 25, 2012

Tuesday
Previous Day Next Day
Daily Summary
 ActualAverageRecord
Temperature
Mean Temperature °F 40°F  
Max Temperature 42°F 45°F 60°F (1980)
Min Temperature 37°F 35°F 24°F (1995)
Degree Days
Heating Degree Days 25 25  
Month to date heating degree days 570 610  
Since 1 July heating degree days 1597 1793  
Cooling Degree Days 0 0  
Month to date cooling degree days 0 0  
Year to date cooling degree days 177 189  
Moisture
Dew Point 32°F   
Average Humidity 74    
Maximum Humidity 85    
Minimum Humidity 62    
Precipitation
Precipitation 0.53 in 0.17 in 1.06 in (1998)
Month to date precipitation 6.45 4.37  
Year to date precipitation 47.86 36.51  
Snow
Snow 0.00 in in 1.00 in (1965)
Month to date snowfall 0.6  
Since 1 July snowfall 0.6  
Snow Depth 0.00 in   
Wind
Wind Speed 9 mph   
Max Wind Speed 20 mph   
Max Gust Speed 26 mph   
Visibility 9 miles   
Events Rain , Snow   

Key: T is trace of precipitation, MM is missing value
Source: NWS Daily Summary
Time(PST)TemperatureDew PointHumidity Pressure Visibility Wind DirectionWind SpeedGust SpeedPrecipitationEvents Conditions
12:53 AM 39.0°F 33.1°F 79% 30.04 in 10.0 miles ENE 6.9 mph - N/A   Mostly Cloudy
1:53 AM 39.9°F 32.0°F 73% 30.00 in 10.0 miles East 6.9 mph - 0.00 in   Mostly Cloudy
2:53 AM 37.9°F 32.0°F 79% 29.97 in 10.0 miles Calm Calm - N/A   Mostly Cloudy
3:53 AM 37.9°F 32.0°F 79% 29.94 in 10.0 miles Calm Calm - N/A   Overcast
4:53 AM 39.9°F 30.9°F 70% 29.88 in 10.0 miles South 5.8 mph - N/A   Overcast
5:53 AM 39.0°F 33.1°F 79% 29.86 in 10.0 miles Calm Calm - N/A   Overcast
6:53 AM 39.0°F 34.0°F 82% 29.82 in 10.0 miles Calm Calm - 0.00 in Rain Light Rain
7:38 AM 42.8°F 30.2°F 61% 29.76 in 10.0 miles ESE 10.4 mph - 0.01 in Rain Light Rain
7:53 AM 41.0°F 32.0°F 70% 29.78 in 8.0 miles ESE 15.0 mph - 0.01 in Rain Light Rain
7:58 AM 41.0°F 32.0°F 70% 29.75 in 8.0 miles ESE 16.1 mph 21.9 mph 0.00 in Rain Light Rain
8:53 AM 39.0°F 33.1°F 79% 29.76 in 6.0 miles SE 9.2 mph 18.4 mph 0.07 in Rain Light Rain
9:53 AM 37.9°F 34.0°F 86% 29.74 in 6.0 miles East 9.2 mph - 0.16 in Rain Light Rain
10:53 AM 37.9°F 33.1°F 83% 29.72 in 5.0 miles ESE 16.1 mph 20.7 mph 0.14 in Rain , Snow Light Rain
11:14 AM 37.4°F 33.8°F 87% 29.68 in 7.0 miles ESE 11.5 mph - 0.02 in Rain Light Rain
11:53 AM 39.0°F 34.0°F 82% 29.70 in 6.0 miles ESE 13.8 mph - 0.04 in Rain Light Rain
12:53 PM 39.0°F 34.0°F 82% 29.70 in 7.0 miles ESE 16.1 mph - 0.07 in Rain Light Rain
1:33 PM 39.2°F 33.8°F 81% 29.66 in 9.0 miles ESE 17.3 mph - 0.02 in Rain Light Rain
1:53 PM 39.0°F 34.0°F 82% 29.69 in 10.0 miles SE 16.1 mph - 0.02 in Rain Light Rain
2:53 PM 39.9°F 34.0°F 79% 29.70 in 10.0 miles ESE 13.8 mph - 0.00 in Rain Light Rain
3:53 PM 41.0°F 33.1°F 73% 29.69 in 10.0 miles East 12.7 mph - 0.00 in   Overcast
4:53 PM 41.0°F 32.0°F 70% 29.69 in 10.0 miles ESE 4.6 mph - N/A   Overcast
5:53 PM 42.1°F 30.9°F 65% 29.69 in 10.0 miles ESE 13.8 mph - 0.00 in   Overcast
6:53 PM 41.0°F 30.9°F 67% 29.69 in 10.0 miles ESE 15.0 mph - 0.00 in   Overcast
7:53 PM 41.0°F 30.9°F 67% 29.68 in 10.0 miles ESE 12.7 mph - 0.00 in Rain Light Rain
8:53 PM 41.0°F 30.9°F 67% 29.69 in 10.0 miles ESE 16.1 mph - 0.01 in Rain Light Rain
9:53 PM 41.0°F 30.9°F 67% 29.70 in 10.0 miles SE 6.9 mph - 0.01 in Rain Light Rain
10:53 PM 41.0°F 30.0°F 65% 29.72 in 10.0 miles SE 9.2 mph - 0.00 in   Overcast
11:53 PM 39.9°F 30.0°F 68% 29.72 in 10.0 miles ESE 6.9 mph - 0.00 in   Overcast
Moon Phase
Dec. 25 Dec. 28 Jan. 04 Jan. 11 Jan. 18
Sunrise:07:55 AM (PST) Moon Rise:02:38 PM (PST)
Sunset:04:23 PM (PST) Moon Set:05:29 AM (PST)

Copyright © 2014 The Weather Underground, Inc.